Simultaneous Nadir Overpasses (SNOs) Predictions

Prediction of SNOs between NOAA-21 and LANDSAT-8 Satellite Orbit:

Table of predicted SNOs for the next 14.0 days since TLE Epoch: 6/1/2024
Index Date (NOAA-21) Time (NOAA-21) Lat,Lon (NOAA-21) SZA (NOAA-21 ) Date (LANDSAT-8) Time (LANDSAT-8) Lat,Lon (LANDSAT-8) SZA (LANDSAT-8 ) Distance(km) Time Diff (sec)
1 06/02/2024 22:35:57 70.10,-162.89 47.69 06/02/2024 22:36:51 70.10,-162.97 47.69 2.83 54
2 06/02/2024 23:26:39 -70.02, 4.54 132.39 06/02/2024 23:26:21 -69.99, 4.51 132.42 3.31 18
3 06/03/2024 00:17:08 69.09, 173.21 46.64 06/03/2024 00:16:01 69.17, 171.04 46.79 86.40 67
4 06/05/2024 14:52:56 70.06, -47.08 47.36 06/05/2024 14:53:22 70.07, -47.13 47.36 2.22 26
5 06/05/2024 15:43:38 -69.98, 120.36 132.73 06/05/2024 15:42:52 -69.96, 120.35 132.75 2.20 46
6 06/08/2024 06:19:13 -70.27, -98.95 132.68 06/08/2024 06:20:24 -70.24, -98.65 132.72 11.70 71
7 06/08/2024 07:09:55 70.03, 68.72 47.08 06/08/2024 07:09:53 70.02, 68.68 47.06 2.40 2
8 06/08/2024 08:00:36 -69.90,-123.76 133.07 06/08/2024 07:59:23 -69.92,-123.83 133.04 3.34 73
9 06/10/2024 22:36:10 -70.14, 17.00 133.01 06/10/2024 22:36:56 -70.12, 17.06 133.04 3.34 46
10 06/10/2024 23:26:54 70.02,-175.49 46.86 06/10/2024 23:26:23 70.01,-175.46 46.85 1.77 31
11 06/13/2024 14:02:37 70.80, -35.60 47.53 06/13/2024 14:03:45 70.74, -33.77 47.41 67.20 68
12 06/13/2024 14:53:07 -70.08, 132.86 133.23 06/13/2024 14:53:25 -70.10, 132.91 133.22 2.34 18
13 06/13/2024 15:43:51 69.96, -59.64 46.64 06/13/2024 15:42:52 69.98, -59.61 46.67 2.73 59



Historial Predications of SNOs between NOAA-21 and LANDSAT-8
